| time (UTC) | temp F | wind direction | speed MPH | gust MPH | rain 1hr in | rain 24hr in | rain mn in | humidity % | barometer mb |
| 20260905072001 | 62 | 312 | 8.0 | 17.0 | 0.00 | 0.28 | 0.01 | 77 | 1012.1 |
| 20260905071603 | 62 | 215 | 8.0 | 22.0 | 0.00 | 0.28 | 0.01 | 78 | 1012.0 |
| 20260905071103 | 62 | 235 | 10.0 | 22.0 | 0.00 | 0.28 | 0.01 | 78 | 1012.1 |
| 20260905070601 | 62 | 205 | 6.0 | 18.0 | 0.00 | 0.28 | 0.01 | 79 | 1011.9 |
| 20260905070113 | 62 | 273 | 6.0 | 17.0 | 0.00 | 0.28 | 0.01 | 79 | 1011.9 |
| 20260905065559 | 62 | 215 | 6.0 | 18.0 | 0.00 | 0.28 | 0.01 | 80 | 1011.8 |
| 20260905065100 | 61 | 223 | 7.0 | 17.0 | 0.00 | 0.28 | 0.01 | 81 | 1011.7 |
| 20260905064601 | 61 | 242 | 9.0 | 17.0 | 0.00 | 0.28 | 0.01 | 81 | 1011.6 |
| 20260905064100 | 61 | 225 | 7.0 | 19.0 | 0.00 | 0.28 | 0.01 | 82 | 1011.6 |
| 20260905063602 | 61 | 248 | 9.0 | 19.0 | 0.00 | 0.28 | 0.01 | 82 | 1011.5 |
| 20260905063101 | 61 | 220 | 9.0 | 18.0 | 0.00 | 0.28 | 0.01 | 82 | 1011.4 |
| 20260905062559 | 61 | 228 | 9.0 | 16.0 | 0.00 | 0.28 | 0.01 | 82 | 1011.3 |
| 20260905062059 | 60 | 213 | 5.0 | 16.0 | 0.00 | 0.28 | 0.01 | 83 | 1011.2 |
| 20260905061617 | 60 | 248 | 7.0 | 21.0 | 0.00 | 0.28 | 0.01 | 83 | 1011.2 |
| 20260905061059 | 60 | 221 | 11.0 | 21.0 | 0.00 | 0.28 | 0.01 | 84 | 1011.3 |
| 20260905060601 | 60 | 207 | 6.0 | 17.0 | 0.00 | 0.28 | 0.01 | 84 | 1011.2 |
| 20260905060100 | 60 | 223 | 9.0 | 17.0 | 0.00 | 0.28 | 0.01 | 85 | 1011.2 |
| 20260905055600 | 60 | 246 | 6.0 | 16.0 | 0.00 | 0.28 | 0.01 | 85 | 1011.2 |
| 20260905055059 | 59 | 246 | 6.0 | 23.0 | 0.00 | 0.28 | 0.01 | 86 | 1011.2 |
| 20260905054603 | 59 | 221 | 10.0 | 23.0 | 0.00 | 0.28 | 0.01 | 86 | 1011.1 |
| 20260905054100 | 59 | 230 | 7.0 | 17.0 | 0.00 | 0.28 | 0.01 | 86 | 1011.1 |
| 20260905053600 | 59 | 204 | 8.0 | 18.0 | 0.00 | 0.28 | 0.01 | 86 | 1011.1 |
| 20260905053112 | 59 | 223 | 11.0 | 18.0 | 0.00 | 0.28 | 0.01 | 86 | 1011.0 |
| 20260905052602 | 58 | 217 | 6.0 | 18.0 | 0.00 | 0.28 | 0.01 | 86 | 1011.0 |
| 20260905052100 | 58 | 238 | 8.0 | 23.0 | 0.00 | 0.28 | 0.01 | 86 | 1010.9 |
| 20260905051559 | 58 | 190 | 8.0 | 23.0 | 0.00 | 0.28 | 0.01 | 87 | 1010.9 |
| 20260905051100 | 58 | 176 | 5.0 | 16.0 | 0.00 | 0.28 | 0.01 | 87 | 1010.8 |
| 20260905050559 | 58 | 219 | 8.0 | 15.0 | 0.00 | 0.28 | 0.01 | 87 | 1010.7 |
| 20260905050100 | 58 | 213 | 7.0 | 16.0 | 0.00 | 0.28 | 0.01 | 87 | 1010.7 |
| 20260905045559 | 57 | 258 | 6.0 | 16.0 | 0.00 | 0.28 | 0.01 | 87 | 1010.7 |
| 20260905045059 | 57 | 225 | 6.0 | 14.0 | 0.00 | 0.28 | 0.01 | 87 | 1010.6 |
| 20260905044600 | 57 | 234 | 5.0 | 19.0 | 0.00 | 0.28 | 0.01 | 87 | 1010.5 |
| 20260905044058 | 57 | 167 | 5.0 | 19.0 | 0.00 | 0.28 | 0.01 | 87 | 1010.4 |
| 20260905043600 | 57 | 244 | 7.0 | 16.0 | 0.00 | 0.28 | 0.01 | 87 | 1010.4 |
| 20260905043100 | 57 | 269 | 5.0 | 16.0 | 0.00 | 0.28 | 0.01 | 87 | 1010.3 |
| 20260905042603 | 57 | 220 | 7.0 | 16.0 | 0.00 | 0.28 | 0.01 | 86 | 1010.4 |
| 20260905042059 | 57 | 191 | 6.0 | 15.0 | 0.00 | 0.28 | 0.01 | 87 | 1010.3 |
| 20260905041600 | 57 | 218 | 5.0 | 16.0 | 0.00 | 0.28 | 0.01 | 86 | 1010.3 |
| 20260905041059 | 57 | 277 | 7.0 | 16.0 | 0.00 | 0.28 | 0.01 | 86 | 1010.1 |
| 20260905040559 | 57 | 230 | 5.0 | 15.0 | 0.00 | 0.28 | 0.01 | 86 | 1010.0 |
| 20260905040100 | 57 | 209 | 5.0 | 14.0 | 0.00 | 0.28 | 0.01 | 86 | 1010.1 |
| 20260905040002 | 57 | 211 | 7.0 | 14.0 | 0.00 | 0.28 | 0.01 | 86 | 1010.0 |
| 20260905035501 | 57 | 237 | 7.0 | 12.0 | 0.00 | 0.28 | 0.01 | 86 | 1009.9 |
| 20260905035002 | 58 | 202 | 4.0 | 12.0 | 0.00 | 0.28 | 0.01 | 86 | 1009.9 |
| 20260905034601 | 58 | 221 | 5.0 | 12.0 | 0.00 | 0.28 | 0.01 | 86 | 1009.8 |
| 20260905034104 | 58 | 197 | 5.0 | 12.0 | 0.00 | 0.28 | 0.01 | 86 | 1009.8 |
| 20260905033601 | 58 | 294 | 7.0 | 12.0 | 0.00 | 0.28 | 0.01 | 86 | 1009.8 |
| 20260905033001 | 58 | 241 | 6.0 | 17.0 | 0.00 | 0.28 | 0.01 | 86 | 1009.7 |
| 20260905032601 | 58 | 215 | 4.0 | 17.0 | 0.00 | 0.28 | 0.01 | 86 | 1009.7 |
| 20260905032500 | 58 | 228 | 4.0 | 17.0 | 0.00 | 0.28 | 0.01 | 86 | 1009.7 |
| 20260905032103 | 58 | 234 | 4.0 | 13.0 | 0.00 | 0.28 | 0.01 | 86 | 1009.7 |
| 20260905031602 | 58 | 207 | 6.0 | 13.0 | 0.00 | 0.28 | 0.01 | 86 | 1009.7 |
| 20260905031100 | 58 | 228 | 8.0 | 14.0 | 0.00 | 0.28 | 0.01 | 86 | 1009.8 |
| 20260905030600 | 58 | 220 | 5.0 | 15.0 | 0.00 | 0.28 | 0.01 | 86 | 1009.7 |
| 20260905030104 | 58 | 215 | 6.0 | 12.0 | 0.00 | 0.28 | 0.01 | 86 | 1009.7 |
| 20260905025557 | 58 | 205 | 6.0 | 14.0 | 0.00 | 0.28 | 0.01 | 86 | 1009.7 |
| 20260905025058 | 58 | 219 | 7.0 | 14.0 | 0.00 | 0.28 | 0.01 | 86 | 1009.6 |
| 20260905024630 | 58 | 152 | 4.0 | 15.0 | 0.00 | 0.28 | 0.01 | 86 | 1009.5 |
| 20260905024059 | 58 | 228 | 6.0 | 14.0 | 0.00 | 0.28 | 0.01 | 86 | 1009.5 |
| 20260905023558 | 58 | 221 | 6.0 | 17.0 | 0.00 | 0.28 | 0.01 | 86 | 1009.5 |
| 20260905023100 | 58 | 220 | 9.0 | 18.0 | 0.00 | 0.28 | 0.01 | 86 | 1009.4 |
| 20260905022558 | 59 | 209 | 4.0 | 11.0 | 0.00 | 0.28 | 0.01 | 86 | 1009.3 |
| 20260905022057 | 59 | 227 | 5.0 | 12.0 | 0.00 | 0.28 | 0.01 | 85 | 1009.2 |
| 20260905021557 | 59 | 219 | 7.0 | 11.0 | 0.00 | 0.28 | 0.01 | 85 | 1009.2 |
| 20260905021057 | 59 | 204 | 4.0 | 10.0 | 0.00 | 0.28 | 0.01 | 85 | 1009.0 |
| 20260905020557 | 59 | 242 | 4.0 | 15.0 | 0.00 | 0.28 | 0.01 | 84 | 1008.9 |
| 20260905020058 | 59 | 182 | 7.0 | 15.0 | 0.00 | 0.28 | 0.01 | 84 | 1008.9 |
| 20260905015556 | 59 | 255 | 5.0 | 15.0 | 0.00 | 0.28 | 0.01 | 84 | 1008.8 |
| 20260905015059 | 59 | 225 | 6.0 | 15.0 | 0.00 | 0.28 | 0.01 | 84 | 1008.8 |
| 20260905014558 | 59 | 239 | 4.0 | 10.0 | 0.00 | 0.28 | 0.01 | 84 | 1008.7 |
| 20260905014059 | 59 | 273 | 4.0 | 10.0 | 0.00 | 0.28 | 0.01 | 84 | 1008.6 |
| 20260905013558 | 59 | 299 | 3.0 | 12.0 | 0.00 | 0.28 | 0.01 | 84 | 1008.7 |
| 20260905013056 | 59 | 229 | 4.0 | 12.0 | 0.00 | 0.28 | 0.01 | 84 | 1008.7 |
| 20260905012556 | 59 | 184 | 4.0 | 12.0 | 0.00 | 0.28 | 0.01 | 84 | 1008.7 |
| 20260905012058 | 59 | 243 | 6.0 | 18.0 | 0.00 | 0.28 | 0.01 | 84 | 1008.7 |
| 20260905011601 | 59 | 211 | 4.0 | 17.0 | 0.00 | 0.28 | 0.01 | 85 | 1008.6 |
| 20260905011056 | 60 | 204 | 4.0 | 17.0 | 0.00 | 0.28 | 0.01 | 85 | 1008.6 |
| 20260905010555 | 60 | 217 | 5.0 | 21.0 | 0.00 | 0.28 | 0.01 | 86 | 1008.4 |
| 20260905010101 | 60 | 230 | 5.0 | 21.0 | 0.00 | 0.28 | 0.01 | 86 | 1008.3 |
| 20260905005556 | 60 | 188 | 6.0 | 19.0 | 0.00 | 0.28 | 0.01 | 86 | 1008.4 |
| 20260905005058 | 60 | 278 | 6.0 | 19.0 | 0.00 | 0.28 | 0.01 | 86 | 1008.1 |
| 20260905004601 | 60 | 223 | 6.0 | 11.0 | 0.00 | 0.28 | 0.01 | 86 | 1007.9 |
| 20260905004059 | 60 | 240 | 3.0 | 12.0 | 0.00 | 0.28 | 0.01 | 86 | 1007.9 |
| 20260905003556 | 60 | 188 | 4.0 | 12.0 | 0.00 | 0.28 | 0.01 | 87 | 1007.8 |
| 20260905003057 | 60 | 303 | 5.0 | 16.0 | 0.00 | 0.28 | 0.01 | 87 | 1007.9 |
| 20260905002556 | 60 | 259 | 6.0 | 16.0 | 0.00 | 0.28 | 0.01 | 87 | 1008.0 |
| 20260905002057 | 60 | 168 | 3.0 | 16.0 | 0.00 | 0.28 | 0.01 | 88 | 1008.0 |
| 20260905001556 | 60 | 173 | 5.0 | 11.0 | 0.00 | 0.28 | 0.01 | 88 | 1007.9 |
| 20260905001055 | 60 | 205 | 6.0 | 13.0 | 0.00 | 0.28 | 0.01 | 88 | 1007.8 |
| 20260905000557 | 60 | 248 | 3.0 | 13.0 | 0.00 | 0.28 | 0.01 | 88 | 1007.6 |
| 20260905000056 | 60 | 230 | 6.0 | 15.0 | 0.00 | 0.28 | 0.01 | 88 | 1007.5 |
| 20260904235557 | 60 | 216 | 7.0 | 15.0 | 0.00 | 0.28 | 0.01 | 88 | 1007.3 |
| 20260904235058 | 60 | 233 | 3.0 | 14.0 | 0.00 | 0.28 | 0.01 | 88 | 1007.1 |
| 20260904234557 | 60 | 202 | 5.0 | 14.0 | 0.00 | 0.28 | 0.01 | 88 | 1007.0 |
| 20260904234056 | 60 | 142 | 4.0 | 11.0 | 0.00 | 0.28 | 0.01 | 88 | 1006.9 |
| 20260904233558 | 60 | 229 | 5.0 | 11.0 | 0.00 | 0.28 | 0.01 | 88 | 1007.0 |
| 20260904233104 | 60 | 226 | 3.0 | 10.0 | 0.00 | 0.28 | 0.01 | 89 | 1007.1 |
| 20260904232558 | 60 | 168 | 5.0 | 10.0 | 0.00 | 0.28 | 0.01 | 89 | 1007.1 |
| 20260904232057 | 61 | 236 | 3.0 | 10.0 | 0.00 | 0.28 | 0.01 | 88 | 1006.8 |
| 20260904231558 | 61 | 214 | 3.0 | 10.0 | 0.00 | 0.28 | 0.01 | 88 | 1006.8 |
| 20260904231101 | 61 | 248 | 2.0 | 12.0 | 0.00 | 0.28 | 0.01 | 88 | 1006.8 |
| 20260904230558 | 61 | 237 | 3.0 | 15.0 | 0.00 | 0.28 | 0.01 | 88 | 1006.6 |
| 20260904230058 | 61 | 213 | 5.0 | 14.0 | 0.01 | 0.28 | 0.01 | 88 | 1006.6 |
| 20260904225557 | 61 | 215 | 3.0 | 14.0 | 0.02 | 0.28 | 0.01 | 88 | 1006.7 |
| 20260904225057 | 62 | 225 | 7.0 | 14.0 | 0.02 | 0.28 | 0.01 | 88 | 1006.6 |
| 20260904224555 | 62 | 152 | 5.0 | 12.0 | 0.02 | 0.28 | 0.01 | 88 | 1006.5 |
| 20260904224057 | 62 | 223 | 4.0 | 12.0 | 0.02 | 0.28 | 0.01 | 88 | 1006.4 |
| 20260904223557 | 62 | 211 | 3.0 | 14.0 | 0.14 | 0.28 | 0.01 | 88 | 1006.3 |
| 20260904223100 | 62 | 250 | 5.0 | 14.0 | 0.15 | 0.28 | 0.01 | 88 | 1006.3 |
| 20260904222557 | 62 | 216 | 4.0 | 16.0 | 0.15 | 0.28 | 0.01 | 88 | 1006.2 |
| 20260904222057 | 62 | 221 | 5.0 | 19.0 | 0.15 | 0.28 | 0.01 | 88 | 1006.0 |
| 20260904221604 | 62 | 140 | 5.0 | 9.0 | 0.15 | 0.28 | 0.01 | 88 | 1006.0 |
| 20260904221057 | 62 | 219 | 4.0 | 11.0 | 0.15 | 0.28 | 0.01 | 88 | 1006.0 |
| 20260904220556 | 62 | 202 | 6.0 | 12.0 | 0.14 | 0.28 | 0.00 | 88 | 1005.9 |
| 20260904215558 | 62 | 182 | 3.0 | 12.0 | 0.13 | 0.28 | 0.28 | 88 | 1005.6 |
| 20260904215058 | 62 | 205 | 3.0 | 12.0 | 0.13 | 0.28 | 0.28 | 88 | 1005.6 |
| 20260904214607 | 62 | 257 | 2.0 | 7.0 | 0.13 | 0.28 | 0.27 | 88 | 1005.7 |
| 20260904214058 | 62 | 202 | 5.0 | 7.0 | 0.13 | 0.28 | 0.27 | 88 | 1005.7 |
| 20260904213559 | 62 | 336 | 2.0 | 6.0 | 0.01 | 0.17 | 0.15 | 88 | 1005.7 |
| 20260904213058 | 62 | 230 | 2.0 | 7.0 | 0.00 | 0.16 | 0.14 | 88 | 1005.3 |
| 20260904212558 | 62 | 206 | 3.0 | 7.0 | 0.00 | 0.16 | 0.14 | 88 | 1005.2 |
| 20260904212102 | 62 | 210 | 3.0 | 5.0 | 0.00 | 0.16 | 0.14 | 88 | 1005.1 |
| 20260904211605 | 62 | 174 | 2.0 | 4.0 | 0.00 | 0.16 | 0.14 | 88 | 1005.2 |
| 20260904211058 | 62 | 191 | 1.0 | 7.0 | 0.00 | 0.16 | 0.14 | 88 | 1005.2 |
| 20260904210603 | 62 | 211 | 3.0 | 7.0 | 0.00 | 0.16 | 0.14 | 88 | 1005.2 |
| 20260904210059 | 62 | 198 | 2.0 | 5.0 | 0.00 | 0.16 | 0.14 | 88 | 1005.2 |
| 20260904205558 | 62 | 209 | 1.0 | 6.0 | 0.00 | 0.16 | 0.14 | 88 | 1005.3 |
| 20260904205057 | 63 | 215 | 2.0 | 6.0 | 0.00 | 0.16 | 0.14 | 88 | 1005.6 |
| 20260904204557 | 63 | 211 | 3.0 | 7.0 | 0.00 | 0.16 | 0.14 | 88 | 1005.6 |
| 20260904204101 | 63 | 209 | 3.0 | 7.0 | 0.00 | 0.16 | 0.14 | 88 | 1005.6 |
| 20260904203558 | 63 | 223 | 3.0 | 7.0 | 0.00 | 0.16 | 0.14 | 88 | 1005.5 |
| 20260904203058 | 63 | 207 | 2.0 | 7.0 | 0.00 | 0.16 | 0.14 | 88 | 1005.6 |
| 20260904202557 | 63 | 234 | 2.0 | 13.0 | 0.00 | 0.16 | 0.14 | 88 | 1005.6 |
| 20260904202100 | 63 | 240 | 7.0 | 13.0 | 0.00 | 0.16 | 0.14 | 88 | 1005.7 |
| 20260904201603 | 63 | 211 | 4.0 | 12.0 | 0.00 | 0.16 | 0.14 | 88 | 1005.7 |
| 20260904201057 | 63 | 216 | 5.0 | 11.0 | 0.00 | 0.16 | 0.14 | 88 | 1005.6 |
| 20260904200557 | 63 | 194 | 6.0 | 10.0 | 0.00 | 0.16 | 0.14 | 88 | 1005.7 |
| 20260904200100 | 63 | 236 | 4.0 | 15.0 | 0.00 | 0.16 | 0.14 | 88 | 1005.6 |
| 20260904195557 | 63 | 256 | 4.0 | 11.0 | 0.00 | 0.17 | 0.14 | 88 | 1005.8 |
| 20260904195058 | 63 | 207 | 6.0 | 15.0 | 0.00 | 0.17 | 0.14 | 88 | 1005.8 |
| 20260904194603 | 63 | 188 | 7.0 | 15.0 | 0.00 | 0.17 | 0.14 | 88 | 1005.8 |
| 20260904194057 | 63 | 237 | 6.0 | 15.0 | 0.00 | 0.17 | 0.14 | 88 | 1005.6 |
| 20260904193559 | 63 | 209 | 6.0 | 12.0 | 0.00 | 0.17 | 0.14 | 88 | 1005.6 |
| 20260904193059 | 64 | 195 | 5.0 | 10.0 | 0.00 | 0.17 | 0.14 | 88 | 1005.4 |
| 20260904192558 | 64 | 219 | 5.0 | 12.0 | 0.00 | 0.17 | 0.14 | 88 | 1005.6 |
| 20260904192059 | 64 | 241 | 4.0 | 14.0 | 0.00 | 0.17 | 0.14 | 88 | 1005.5 |
| 20260904191559 | 64 | 267 | 5.0 | 11.0 | 0.00 | 0.17 | 0.14 | 88 | 1005.8 |
| 20260904191058 | 64 | 214 | 4.0 | 11.0 | 0.00 | 0.17 | 0.14 | 88 | 1005.5 |
| 20260904190558 | 64 | 214 | 6.0 | 11.0 | 0.00 | 0.17 | 0.14 | 88 | 1005.3 |
| 20260904190059 | 64 | 253 | 4.0 | 11.0 | 0.00 | 0.17 | 0.14 | 88 | 1005.2 |
| 20260904185558 | 64 | 248 | 5.0 | 11.0 | 0.00 | 0.17 | 0.14 | 88 | 1005.0 |
| 20260904185058 | 64 | 254 | 4.0 | 10.0 | 0.00 | 0.17 | 0.14 | 88 | 1005.0 |
| 20260904184605 | 64 | 209 | 6.0 | 10.0 | 0.00 | 0.17 | 0.14 | 88 | 1004.8 |
| 20260904184058 | 64 | 212 | 5.0 | 11.0 | 0.00 | 0.17 | 0.14 | 88 | 1004.9 |
| 20260904183557 | 64 | 177 | 4.0 | 12.0 | 0.00 | 0.17 | 0.14 | 88 | 1004.8 |
| 20260904183057 | 64 | 207 | 5.0 | 11.0 | 0.00 | 0.17 | 0.14 | 88 | 1004.6 |
| 20260904182600 | 64 | 202 | 5.0 | 11.0 | 0.00 | 0.17 | 0.14 | 88 | 1004.5 |
| 20260904182057 | 64 | 213 | 4.0 | 12.0 | 0.00 | 0.17 | 0.14 | 88 | 1004.5 |
| 20260904181557 | 64 | 221 | 5.0 | 12.0 | 0.00 | 0.17 | 0.14 | 88 | 1004.5 |
| 20260904181058 | 64 | 181 | 6.0 | 17.0 | 0.00 | 0.17 | 0.14 | 88 | 1004.4 |
| 20260904180601 | 64 | 243 | 5.0 | 17.0 | 0.00 | 0.17 | 0.14 | 88 | 1004.4 |
| 20260904180106 | 64 | 225 | 4.0 | 9.0 | 0.00 | 0.17 | 0.14 | 88 | 1004.2 |
| 20260904175559 | 64 | 167 | 4.0 | 11.0 | 0.00 | 0.17 | 0.14 | 88 | 1004.2 |
| 20260904175058 | 64 | 218 | 5.0 | 15.0 | 0.00 | 0.17 | 0.14 | 88 | 1004.3 |
| 20260904174600 | 64 | 221 | 5.0 | 14.0 | 0.01 | 0.17 | 0.14 | 88 | 1004.3 |
| 20260904174058 | 64 | 180 | 7.0 | 19.0 | 0.10 | 0.17 | 0.14 | 88 | 1004.1 |
| 20260904173557 | 65 | 219 | 6.0 | 19.0 | 0.12 | 0.17 | 0.14 | 88 | 1004.0 |
| 20260904173102 | 65 | 202 | 4.0 | 10.0 | 0.14 | 0.17 | 0.14 | 88 | 1003.8 |
| 20260904172558 | 65 | 229 | 5.0 | 16.0 | 0.14 | 0.17 | 0.14 | 88 | 1003.6 |
| 20260904172058 | 66 | 232 | 4.0 | 16.0 | 0.14 | 0.17 | 0.14 | 88 | 1003.4 |
| 20260904171601 | 66 | 219 | 4.0 | 10.0 | 0.14 | 0.17 | 0.14 | 87 | 1003.4 |
| 20260904171058 | 66 | 221 | 3.0 | 11.0 | 0.14 | 0.17 | 0.14 | 87 | 1003.3 |
| 20260904170601 | 67 | 230 | 5.0 | 11.0 | 0.14 | 0.17 | 0.14 | 87 | 1003.1 |
| 20260904170059 | 67 | 188 | 4.0 | 10.0 | 0.14 | 0.17 | 0.14 | 87 | 1003.1 |
| 20260904165559 | 67 | 218 | 5.0 | 10.0 | 0.14 | 0.17 | 0.14 | 86 | 1002.8 |
| 20260904165059 | 68 | 238 | 6.0 | 18.0 | 0.14 | 0.17 | 0.14 | 86 | 1002.9 |
| 20260904164604 | 69 | 210 | 10.0 | 18.0 | 0.13 | 0.16 | 0.13 | 85 | 1003.0 |
| 20260904164059 | 71 | 237 | 3.0 | 14.0 | 0.04 | 0.06 | 0.04 | 82 | 1002.4 |
| 20260904163559 | 72 | 248 | 4.0 | 15.0 | 0.02 | 0.05 | 0.02 | 79 | 1002.1 |
| 20260904163106 | 73 | 215 | 7.0 | 21.0 | 0.00 | 0.02 | 0.00 | 75 | 1002.1 |
| 20260904162558 | 73 | 220 | 7.0 | 21.0 | 0.00 | 0.02 | 0.00 | 74 | 1001.9 |
| 20260904162059 | 73 | 223 | 7.0 | 14.0 | 0.00 | 0.02 | 0.00 | 74 | 1001.9 |
| 20260904161601 | 73 | 216 | 7.0 | 18.0 | 0.00 | 0.02 | 0.00 | 75 | 1001.8 |
| 20260904161059 | 73 | 218 | 8.0 | 18.0 | 0.00 | 0.02 | 0.00 | 75 | 1001.9 |
| 20260904160601 | 73 | 202 | 8.0 | 20.0 | 0.00 | 0.02 | 0.00 | 75 | 1002.1 |
| 20260904160100 | 73 | 211 | 8.0 | 16.0 | 0.00 | 0.02 | 0.00 | 75 | 1002.2 |
| 20260904155559 | 73 | 214 | 8.0 | 19.0 | 0.00 | 0.02 | 0.00 | 76 | 1002.4 |
| 20260904155058 | 73 | 188 | 8.0 | 19.0 | 0.00 | 0.02 | 0.00 | 76 | 1002.5 |
| 20260904154559 | 72 | 205 | 7.0 | 20.0 | 0.00 | 0.02 | 0.00 | 77 | 1002.6 |
| 20260904154058 | 72 | 166 | 7.0 | 20.0 | 0.00 | 0.02 | 0.00 | 77 | 1002.7 |
| 20260904153558 | 72 | 230 | 8.0 | 15.0 | 0.00 | 0.02 | 0.00 | 77 | 1002.8 |
| 20260904153105 | 72 | 159 | 6.0 | 14.0 | 0.00 | 0.02 | 0.00 | 78 | 1002.9 |
| 20260904152559 | 72 | 208 | 7.0 | 16.0 | 0.00 | 0.02 | 0.00 | 78 | 1003.2 |
| 20260904152059 | 72 | 207 | 5.0 | 18.0 | 0.00 | 0.02 | 0.00 | 78 | 1003.1 |
| 20260904151558 | 72 | 216 | 7.0 | 18.0 | 0.00 | 0.02 | 0.00 | 78 | 1003.3 |
| 20260904151059 | 71 | 200 | 7.0 | 13.0 | 0.00 | 0.02 | 0.00 | 78 | 1003.5 |
| 20260904150559 | 71 | 214 | 6.0 | 14.0 | 0.00 | 0.02 | 0.00 | 78 | 1003.7 |
| 20260904150058 | 71 | 219 | 5.0 | 14.0 | 0.00 | 0.02 | 0.00 | 78 | 1003.9 |
| 20260904145558 | 71 | 140 | 6.0 | 13.0 | 0.00 | 0.02 | 0.00 | 78 | 1004.0 |
| 20260904145058 | 71 | 219 | 7.0 | 18.0 | 0.00 | 0.02 | 0.00 | 78 | 1004.1 |
| 20260904144559 | 71 | 192 | 9.0 | 18.0 | 0.00 | 0.02 | 0.00 | 77 | 1004.2 |
| 20260904144101 | 71 | 204 | 7.0 | 16.0 | 0.00 | 0.02 | 0.00 | 77 | 1004.3 |
| 20260904143559 | 72 | 200 | 6.0 | 16.0 | 0.00 | 0.02 | 0.00 | 76 | 1004.4 |
| 20260904143059 | 72 | 179 | 8.0 | 16.0 | 0.00 | 0.02 | 0.00 | 76 | 1004.5 |
| 20260904142559 | 72 | 213 | 5.0 | 14.0 | 0.00 | 0.02 | 0.00 | 76 | 1004.6 |
| 20260904142059 | 71 | 195 | 6.0 | 15.0 | 0.00 | 0.02 | 0.00 | 77 | 1004.7 |
| 20260904141617 | 71 | 202 | 6.0 | 14.0 | 0.00 | 0.02 | 0.00 | 76 | 1004.9 |
| 20260904141058 | 71 | 227 | 7.0 | 14.0 | 0.00 | 0.02 | 0.00 | 77 | 1005.0 |
| 20260904140558 | 70 | 204 | 6.0 | 15.0 | 0.00 | 0.02 | 0.00 | 77 | 1004.8 |
| 20260904140059 | 70 | 221 | 6.0 | 15.0 | 0.00 | 0.02 | 0.00 | 77 | 1005.1 |
| 20260904135557 | 70 | 223 | 4.0 | 14.0 | 0.00 | 0.02 | 0.00 | 77 | 1005.2 |
| 20260904135058 | 70 | 207 | 7.0 | 12.0 | 0.00 | 0.02 | 0.00 | 77 | 1005.1 |
| 20260904134558 | 69 | 212 | 6.0 | 11.0 | 0.00 | 0.02 | 0.00 | 78 | 1005.5 |
| 20260904134057 | 69 | 212 | 8.0 | 11.0 | 0.00 | 0.02 | 0.00 | 78 | 1005.7 |
| 20260904133557 | 69 | 217 | 5.0 | 10.0 | 0.00 | 0.02 | 0.00 | 79 | 1005.6 |
| 20260904133058 | 69 | 202 | 4.0 | 10.0 | 0.00 | 0.02 | 0.00 | 79 | 1005.6 |
| 20260904132600 | 69 | 161 | 3.0 | 11.0 | 0.00 | 0.02 | 0.00 | 79 | 1005.8 |
| 20260904132057 | 68 | 184 | 4.0 | 14.0 | 0.00 | 0.02 | 0.00 | 80 | 1005.9 |
| 20260904131632 | 68 | 197 | 5.0 | 10.0 | 0.00 | 0.02 | 0.00 | 80 | 1006.2 |
| 20260904131057 | 68 | 229 | 4.0 | 16.0 | 0.00 | 0.02 | 0.00 | 80 | 1006.3 |
| 20260904130557 | 68 | 202 | 7.0 | 16.0 | 0.00 | 0.02 | 0.00 | 81 | 1006.5 |
| 20260904130057 | 68 | 161 | 5.0 | 11.0 | 0.00 | 0.02 | 0.00 | 82 | 1006.6 |
| 20260904125558 | 67 | 177 | 3.0 | 8.0 | 0.00 | 0.02 | 0.00 | 83 | 1006.7 |
| 20260904125058 | 67 | 156 | 2.0 | 7.0 | 0.00 | 0.02 | 0.00 | 83 | 1006.8 |
| 20260904124557 | 67 | 135 | 3.0 | 9.0 | 0.00 | 0.02 | 0.00 | 83 | 1007.2 |
| 20260904124056 | 67 | 145 | 5.0 | 12.0 | 0.00 | 0.02 | 0.00 | 83 | 1007.3 |
| 20260904123558 | 67 | 150 | 4.0 | 12.0 | 0.00 | 0.02 | 0.00 | 83 | 1007.4 |
| 20260904123107 | 67 | 156 | 2.0 | 10.0 | 0.00 | 0.02 | 0.00 | 83 | 1007.5 |
| 20260904122557 | 67 | 244 | 3.0 | 8.0 | 0.00 | 0.02 | 0.00 | 83 | 1007.6 |
| 20260904122101 | 67 | 173 | 3.0 | 8.0 | 0.00 | 0.02 | 0.00 | 82 | 1007.8 |
| 20260904121558 | 67 | 167 | 4.0 | 8.0 | 0.00 | 0.02 | 0.00 | 82 | 1008.2 |
| 20260904121057 | 67 | 223 | 3.0 | 10.0 | 0.00 | 0.02 | 0.00 | 81 | 1008.3 |
| 20260904120600 | 67 | 149 | 5.0 | 10.0 | 0.00 | 0.02 | 0.00 | 81 | 1008.4 |
| 20260904120100 | 67 | 121 | 3.0 | 10.0 | 0.00 | 0.02 | 0.00 | 80 | 1008.4 |
| 20260904115557 | 67 | 191 | 5.0 | 10.0 | 0.00 | 0.02 | 0.00 | 80 | 1008.7 |
| 20260904115059 | 67 | 200 | 3.0 | 0.0 | 0.11 | 0.21 | 0.00 | 80 | 1008.9 |
| 20260904114600 | 67 | 188 | 5.0 | 8.0 | 0.00 | 0.02 | 0.00 | 79 | 1009.2 |
| 20260904114057 | 67 | 238 | 1.0 | 5.0 | 0.00 | 0.02 | 0.00 | 79 | 1009.3 |
| 20260904113558 | 67 | 215 | 2.0 | 8.0 | 0.00 | 0.02 | 0.00 | 80 | 1009.4 |
| 20260904113058 | 66 | 140 | 3.0 | 9.0 | 0.00 | 0.02 | 0.00 | 79 | 1009.6 |
| 20260904112557 | 67 | 209 | 4.0 | 11.0 | 0.00 | 0.02 | 0.00 | 79 | 1009.9 |
| 20260904112057 | 68 | 221 | 6.0 | 15.0 | 0.00 | 0.02 | 0.00 | 78 | 1010.0 |
| 20260904111557 | 68 | 228 | 4.0 | 15.0 | 0.00 | 0.02 | 0.00 | 77 | 1010.1 |
| 20260904111058 | 69 | 215 | 6.0 | 14.0 | 0.00 | 0.02 | 0.00 | 77 | 1010.1 |
| 20260904110558 | 69 | 191 | 5.0 | 14.0 | 0.00 | 0.02 | 0.00 | 77 | 1010.1 |
| 20260904110058 | 69 | 194 | 6.0 | 12.0 | 0.00 | 0.02 | 0.00 | 77 | 1010.2 |
| 20260904105559 | 68 | 230 | 5.0 | 12.0 | 0.00 | 0.02 | 0.00 | 76 | 1010.3 |
| 20260904105059 | 68 | 207 | 7.0 | 12.0 | 0.00 | 0.02 | 0.00 | 76 | 1010.4 |
| 20260904104607 | 69 | 211 | 5.0 | 12.0 | 0.00 | 0.02 | 0.00 | 76 | 1010.4 |
| 20260904104058 | 68 | 280 | 5.0 | 13.0 | 0.00 | 0.02 | 0.00 | 75 | 1010.5 |
| 20260904103559 | 68 | 200 | 5.0 | 13.0 | 0.00 | 0.02 | 0.00 | 76 | 1010.6 |
| 20260904103106 | 68 | 207 | 7.0 | 12.0 | 0.00 | 0.02 | 0.00 | 76 | 1010.7 |
| 20260904102558 | 68 | 227 | 5.0 | 10.0 | 0.00 | 0.02 | 0.00 | 76 | 1010.8 |
| 20260904102057 | 68 | 207 | 3.0 | 11.0 | 0.00 | 0.02 | 0.00 | 77 | 1010.9 |
| 20260904101604 | 68 | 233 | 5.0 | 11.0 | 0.00 | 0.02 | 0.00 | 77 | 1011.0 |
| 20260904101059 | 67 | 209 | 8.0 | 12.0 | 0.00 | 0.02 | 0.00 | 77 | 1011.1 |
| 20260904100558 | 67 | 214 | 6.0 | 10.0 | 0.00 | 0.02 | 0.00 | 77 | 1011.1 |
| 20260904100058 | 67 | 227 | 5.0 | 12.0 | 0.00 | 0.02 | 0.00 | 77 | 1011.2 |
| 20260904095557 | 67 | 211 | 7.0 | 12.0 | 0.00 | 0.02 | 0.00 | 77 | 1011.2 |
| 20260904095058 | 67 | 217 | 6.0 | 11.0 | 0.00 | 0.02 | 0.00 | 77 | 1011.3 |
| 20260904094557 | 67 | 244 | 4.0 | 12.0 | 0.00 | 0.02 | 0.00 | 77 | 1011.3 |
| 20260904094057 | 68 | 209 | 4.0 | 11.0 | 0.00 | 0.02 | 0.00 | 78 | 1011.4 |
| 20260904093558 | 67 | 227 | 2.0 | 9.0 | 0.00 | 0.02 | 0.00 | 79 | 1011.5 |
| 20260904093056 | 67 | 213 | 4.0 | 14.0 | 0.00 | 0.02 | 0.00 | 79 | 1011.6 |
| 20260904092557 | 67 | 234 | 5.0 | 14.0 | 0.00 | 0.02 | 0.00 | 78 | 1011.7 |
| 20260904092100 | 67 | 213 | 7.0 | 12.0 | 0.00 | 0.02 | 0.00 | 78 | 1011.7 |
| 20260904091558 | 67 | 186 | 6.0 | 12.0 | 0.00 | 0.02 | 0.00 | 77 | 1011.8 |
| 20260904091058 | 67 | 240 | 4.0 | 14.0 | 0.00 | 0.02 | 0.00 | 78 | 1011.8 |
| 20260904090557 | 67 | 211 | 7.0 | 15.0 | 0.00 | 0.02 | 0.00 | 78 | 1011.8 |
| 20260904090056 | 67 | 226 | 7.0 | 15.0 | 0.00 | 0.02 | 0.00 | 78 | 1011.7 |
| 20260904085557 | 67 | 207 | 11.0 | 15.0 | 0.00 | 0.02 | 0.00 | 78 | 1011.8 |
| 20260904085057 | 67 | 221 | 8.0 | 16.0 | 0.00 | 0.02 | 0.00 | 79 | 1011.8 |
| 20260904084559 | 66 | 234 | 8.0 | 18.0 | 0.00 | 0.02 | 0.00 | 80 | 1011.8 |
| 20260904084057 | 66 | 182 | 8.0 | 21.0 | 0.00 | 0.02 | 0.00 | 80 | 1011.9 |
| 20260904083556 | 67 | 218 | 8.0 | 21.0 | 0.00 | 0.02 | 0.00 | 81 | 1012.0 |
| 20260904083101 | 66 | 211 | 8.0 | 15.0 | 0.00 | 0.02 | 0.00 | 83 | 1012.1 |
| 20260904082557 | 65 | 236 | 5.0 | 13.0 | 0.00 | 0.02 | 0.00 | 85 | 1011.9 |
| 20260904082057 | 65 | 227 | 6.0 | 12.0 | 0.00 | 0.02 | 0.00 | 86 | 1012.1 |
| 20260904081556 | 64 | 238 | 7.0 | 11.0 | 0.00 | 0.02 | 0.00 | 87 | 1012.0 |
| 20260904081057 | 64 | 220 | 3.0 | 9.0 | 0.00 | 0.02 | 0.00 | 88 | 1011.9 |
| 20260904080557 | 64 | 205 | 3.0 | 9.0 | 0.00 | 0.02 | 0.00 | 88 | 1011.9 |
| 20260904080058 | 64 | 219 | 3.0 | 7.0 | 0.00 | 0.02 | 0.00 | 88 | 1011.9 |
| 20260904075557 | 64 | 196 | 2.0 | 8.0 | 0.00 | 0.02 | 0.00 | 88 | 1011.9 |
| 20260904075058 | 63 | 202 | 4.0 | 10.0 | 0.00 | 0.02 | 0.00 | 88 | 1011.9 |
| 20260904074629 | 63 | 191 | 5.0 | 10.0 | 0.00 | 0.02 | 0.00 | 88 | 1012.0 |
| 20260904074056 | 63 | 199 | 4.0 | 7.0 | 0.00 | 0.02 | 0.00 | 88 | 1012.1 |
| 20260904073559 | 63 | 225 | 3.0 | 8.0 | 0.00 | 0.02 | 0.00 | 88 | 1012.1 |
| 20260904073057 | 63 | 178 | 3.0 | 6.0 | 0.00 | 0.02 | 0.00 | 88 | 1012.0 |
| 20260904072558 | 63 | 244 | 3.0 | 9.0 | 0.00 | 0.02 | 0.00 | 88 | 1012.1 |